Back to catalog

COSMOS 1725

AliveMilitaryPO
NORAD 16493·PAYLOAD·🇷🇺 Russia

Launched Jan 16, 1986 from Plesetsk Cosmodrome

Loading…

Next Passes (next 24 hours)

TLE

FreshSource: Space-Track

Epoch: Sep 14, 2026, 14:04 UTC

1 16493U 86005A   26257.58637140  .00000047  00000-0  33145-4 0  9999
2 16493  82.9309 116.9318 0021181 306.0140  82.2108 13.74929725 84486

Track COSMOS 1725 in real time with AllMySat

Download on the App Store